McConnell AFB, KS

7:51 PM CDT on September 18, 2019 (GMT -0500)
McConnell Air Force Base

Weather History for KIAB - August, 2019

Change the Weather History Date:

Monday, August 19, 2019

  Actual Average Record
Temperature  
Mean Temperature 86 °F -  
Max Temperature 97 °F 88 °F 107 °F (2011)
Min Temperature 75 °F 67 °F 58 °F (2012)
Cooling Degree Days 20    
Growing Degree Days 36 (Base 50)    
Moisture  
Dew Point 72 °F    
Average Humidity 65    
Maximum Humidity 87    
Minimum Humidity 43    
Precipitation  
Precipitation 0.00 in - - ()
Sea Level Pressure  
Sea Level Pressure 29.90 in    
Wind  
Wind Speed 10 mph (ESE)    
Max Wind Speed 16 mph    
Max Gust Speed -    
Visibility 10 miles    
Events      
Averages and records for this station are not official NWS values.
T = Trace of Precipitation, MM = Missing Value Source: NWS Daily Summary

Daily Weather History Graph

Daily Weather History Graph

Search for Another Location

Airport or City:

Astronomy

Aug. 19, 2019 Rise Set
Actual Time 6:48 AM CDT 8:16 PM CDT
Civil Twilight 6:20 AM CDT 8:44 PM CDT
Nautical Twilight 5:47 AM CDT 9:17 PM CDT
Astronomical Twilight 5:12 AM CDT 9:52 PM CDT
Moon 10:42 PM CDT 10:26 AM CDT
Length of Visible Light 14h 23m
Length of Day
13h 28m
Waning Gibbous, 85% of the Moon is Illuminated
Aug 19
Waning Gibbous
Aug 23
Last Quarter
Aug 30
New
Sep 5
First Quarter
Sep 13
Full

Hourly Weather History & Observations

Time (CDT) Temp. Heat Index Dew Point Humidity Pressure Visibility Wind Dir Wind Speed Gust Speed Precip Events Conditions
12:56 AM 79.2 °F - 72.7 °F 80% 29.89 in 10.0 mi East 9.2 mph - N/A   Mostly Cloudy
1:56 AM 78.6 °F - 73.0 °F 83% 29.89 in 10.0 mi East 9.2 mph - N/A   Partly Cloudy
2:56 AM 77.9 °F - 72.7 °F 84% 29.88 in 10.0 mi ESE 12.7 mph - N/A   Clear
3:56 AM 77.7 °F - 71.8 °F 82% 29.88 in 10.0 mi East 8.1 mph - N/A   Clear
4:56 AM 76.5 °F - 71.2 °F 84% 29.88 in 10.0 mi ENE 5.8 mph - N/A   Clear
5:56 AM 75.4 °F - 71.2 °F 87% 29.89 in 10.0 mi ENE 8.1 mph - N/A   Clear
6:56 AM 75.2 °F - 70.0 °F 84% 29.91 in 10.0 mi East 9.2 mph - N/A   Clear
7:56 AM 77.0 °F - 69.6 °F 78% 29.94 in 10.0 mi East 8.1 mph - N/A   Clear
8:56 AM 79.5 °F - 70.5 °F 74% 29.95 in 10.0 mi ESE 11.5 mph - N/A   Clear
9:56 AM 83.8 °F 87.8 °F 69.4 °F 62% 29.94 in 10.0 mi SE 11.5 mph - N/A   Clear
10:56 AM 86.5 °F 91.8 °F 70.5 °F 59% 29.94 in 10.0 mi SSE 11.5 mph - N/A   Clear
11:56 AM 89.1 °F 94.6 °F 70.7 °F 54% 29.94 in 10.0 mi SSE 9.2 mph - N/A   Clear
12:56 PM 91.2 °F 97.5 °F 70.5 °F 51% 29.94 in 10.0 mi SE 8.1 mph - N/A   Partly Cloudy
1:56 PM 93.2 °F 99.4 °F 70.5 °F 47% 29.92 in 10.0 mi ESE 9.2 mph - N/A   Clear
2:56 PM 94.8 °F 100.9 °F 70.0 °F 44% 29.91 in 10.0 mi ESE 10.4 mph - N/A   Clear
3:56 PM 96.3 °F 103.3 °F 70.7 °F 43% 29.89 in 10.0 mi East 11.5 mph - N/A   Clear
4:56 PM 96.8 °F 105.8 °F 72.5 °F 45% 29.88 in 10.0 mi ESE 12.7 mph - N/A   Clear
5:56 PM 95.4 °F 105.4 °F 73.6 °F 49% 29.87 in 10.0 mi ESE 16.1 mph - N/A   Clear
6:56 PM 93.2 °F 103.0 °F 73.9 °F 53% 29.86 in 10.0 mi ESE 16.1 mph - N/A   Clear
7:56 PM 90.0 °F 98.5 °F 73.6 °F 58% 29.87 in 10.0 mi ESE 15.0 mph - N/A   Clear
8:56 PM 87.4 °F 95.3 °F 73.2 °F 63% 29.88 in 10.0 mi ESE 11.5 mph - N/A   Clear
9:56 PM 85.5 °F 92.6 °F 73.2 °F 67% 29.90 in 10.0 mi ESE 13.8 mph - N/A   Clear
11:56 PM 84.0 °F 90.2 °F 72.7 °F 69% 29.91 in 10.0 mi ESE 12.7 mph - N/A   Clear